Theta_e
309 310 310 309 309 310 310 310 310 310 310 311 311 312 312 313 312 308 306 315 317 324 324 312 312 308 316 314 306 305 296 294 296 297 300 306 305 309 309 309 313 319 320 323 327
310 310 310 309 308 309 309 309 309 309 309 310 310 311 311 312 304 302 315 320 321 323 315 307 306 307 307 312 303 298 294 297 302 298 298 304 306 305 305 305 313 319 325 328 322
310 310 310 310 308 308 309 309 309 309 309 309 309 310 310 308 298 305 315 316 318 316 316 312 307 307 306 310 305 298 296 301 300 302 300 301 301 305 303 301 310 317 322 324 321
311 311 311 310 309 308 308 308 308 308 309 309 309 309 310 302 286 308 313 314 317 310 315 310 304 301 304 303 308 299 302 302 303 306 301 299 302 302 304 305 309 323 326 325 322
309 309 310 310 309 309 309 308 308 308 307 308 308 309 302 291 291 302 309 308 307 305 304 305 300 299 298 304 307 303 302 304 308 307 303 304 298 300 302 307 311 326 326 325 324
309 309 309 310 309 309 309 309 308 308 307 307 308 307 295 282 300 302 301 302 301 301 301 304 301 301 297 297 302 307 306 305 306 306 306 301 300 300 302 307 317 324 323 324 325
308 308 308 308 309 309 309 309 309 308 307 307 307 303 294 289 300 299 300 299 300 300 298 303 304 300 297 294 303 304 300 302 304 304 304 302 299 297 301 304 316 320 320 322 323
308 308 308 308 308 309 309 309 309 307 306 308 307 298 288 300 298 299 299 298 300 301 300 304 306 302 297 296 300 298 297 292 299 304 305 302 296 300 301 300 301 310 317 320 322
308 308 308 308 308 308 308 308 306 307 308 307 297 294 287 302 296 299 298 296 299 299 301 303 302 299 294 289 291 296 286 290 295 304 304 302 297 302 304 300 298 298 310 319 320
308 307 307 308 308 307 306 306 306 304 301 303 300 287 290 289 296 297 298 298 296 296 295 297 298 293 288 286 282 287 290 290 292 299 302 299 298 300 302 301 300 300 300 311 317
307 307 307 308 307 307 300 293 287 285 290 286 288 288 290 294 296 294 296 293 292 291 286 292 289 287 289 289 288 290 290 290 294 299 299 299 300 301 305 303 302 303 299 297 303
307 306 307 307 306 305 295 289 289 290 283 290 290 290 293 294 288 291 295 287 287 283 287 286 284 290 294 291 288 287 285 286 292 297 297 295 297 302 305 305 306 306 301 300 300
306 307 307 306 305 296 292 291 297 296 284 285 290 289 291 293 288 288 291 288 283 281 284 283 286 291 291 289 286 287 285 285 286 291 293 294 293 296 301 302 307 310 306 302 302
307 307 306 305 294 291 290 297 298 294 266 276 285 289 292 293 286 294 293 288 285 281 284 285 288 287 287 288 288 283 290 288 287 287 285 293 284 292 299 300 302 306 308 305 302
307 306 305 301 290 290 294 297 296 287 257 280 285 295 291 286 287 288 294 289 282 283 284 281 285 285 284 288 291 286 290 288 288 287 285 284 285 288 296 297 300 303 305 304 297
307 305 302 295 294 294 297 297 290 267 258 271 282 282 282 284 286 289 288 292 289 282 282 282 289 287 286 290 290 293 289 287 288 286 280 285 286 282 288 295 300 304 307 299 296
306 304 300 298 290 296 295 287 268 260 273 269 271 279 279 280 281 284 282 282 278 270 273 279 281 287 289 285 290 288 286 277 277 278 277 285 283 287 290 292 291 298 303 304 297
305 301 299 297 296 294 288 273 260 263 265 279 280 279 274 278 280 280 280 275 283 279 275 270 268 283 288 285 285 284 286 277 271 274 277 283 280 285 295 290 292 293 295 296 296
302 293 292 294 297 291 278 263 265 267 278 278 278 269 264 274 277 277 276 276 283 284 273 269 274 287 288 289 288 287 282 288 278 275 277 280 283 287 289 289 291 293 295 295 296
291 293 292 295 295 284 272 271 266 280 281 280 272 273 261 264 270 270 275 282 281 285 285 279 273 284 288 290 290 287 291 281 280 267 268 277 277 280 283 286 290 292 293 294 296
292 281 291 296 291 276 266 265 270 281 282 279 276 272 270 268 268 264 275 281 284 284 286 281 277 279 284 285 283 283 283 285 282 277 273 272 276 283 284 289 289 291 293 293 294
281 272 290 292 276 274 264 269 282 280 281 280 280 279 277 275 266 272 274 278 286 286 281 284 277 274 278 285 288 287 285 285 279 276 276 278 275 286 286 289 291 291 292 291 292
278 277 291 287 268 268 267 276 280 279 280 277 277 280 279 277 271 276 276 284 286 284 281 285 277 264 273 281 284 282 285 287 286 281 275 272 275 286 289 289 290 290 290 290 290
278 271 275 276 270 267 263 267 271 282 280 281 278 279 278 276 279 270 276 281 285 284 286 287 277 272 272 275 280 277 280 283 285 278 277 277 278 282 286 286 287 288 289 288 288
281 270 275 266 269 265 271 275 275 274 277 281 279 278 274 266 274 275 278 279 281 285 283 283 274 277 280 281 280 280 280 281 282 283 279 280 281 284 286 286 287 287 286 287 286
276 274 278 263 274 267 270 269 276 276 277 273 275 279 277 271 274 275 278 278 276 280 280 282 276 277 274 279 280 278 279 283 285 282 281 283 282 285 285 286 286 286 286 285 285
282 282 280 273 266 272 267 271 277 278 279 281 280 278 277 279 280 280 280 281 282 279 278 278 276 270 271 276 277 273 277 279 282 284 283 280 285 284 284 287 285 285 286 285 285
Wind_Speed
12 12 13 14 14 14 14 14 14 14 14 16 18 19 19 21 19 4 2 5 6 11 7 6 5 5 2 3 3 3 3 4 4 1 1 4 7 7 3 6 4 4 6 6 17
12 12 12 13 14 14 13 14 14 13 14 15 17 20 21 20 4 3 3 8 11 11 3 0 3 6 1 3 2 4 5 9 3 2 0 4 4 5 2 3 5 4 6 18 17
13 13 12 12 12 13 14 14 13 13 13 14 16 18 23 14 3 2 13 15 17 15 3 3 2 2 3 1 3 5 6 6 4 4 2 5 5 5 1 1 6 9 11 16 13
12 14 15 13 12 12 14 14 15 14 14 14 14 15 22 3 2 2 17 16 12 13 2 2 3 4 5 6 5 4 6 5 6 2 2 1 5 7 1 4 6 12 20 16 15
11 12 14 12 12 13 13 14 15 15 14 13 14 15 8 5 6 6 14 14 6 8 5 3 3 2 7 6 4 3 3 2 3 4 1 2 1 3 7 8 2 10 13 17 16
8 11 13 11 12 14 15 14 15 16 15 14 11 10 3 4 4 5 8 8 6 7 7 5 3 5 5 3 6 4 6 5 2 0 1 2 3 0 3 6 6 12 12 12 16
8 9 10 12 13 13 15 17 18 16 16 14 10 2 3 11 5 8 8 4 3 3 5 5 5 4 5 2 4 2 4 5 4 5 4 3 7 7 4 3 6 6 5 8 9
10 10 11 12 13 12 15 18 20 20 17 11 7 2 7 6 4 8 4 5 6 5 5 9 5 4 4 4 2 5 4 7 5 10 6 7 15 6 3 1 3 6 8 8 11
10 11 12 13 12 12 16 21 22 17 10 5 1 3 9 9 1 2 1 3 6 5 6 10 5 4 2 3 3 6 5 9 4 12 7 15 8 9 3 7 4 5 7 10 9
8 11 13 14 12 13 17 22 13 4 4 3 1 3 5 3 1 4 4 3 4 5 5 4 5 4 4 7 15 6 9 5 9 6 9 7 9 5 8 6 4 6 6 7 9
9 10 12 12 11 13 11 5 7 6 6 2 5 4 7 8 6 3 1 6 2 2 4 4 8 17 12 11 6 1 5 15 8 7 8 17 13 12 9 6 6 6 3 3 7
9 10 11 11 7 10 4 5 2 3 8 5 9 7 9 5 7 4 3 2 2 5 4 5 20 12 6 10 8 12 5 5 4 4 6 5 15 13 14 13 11 13 8 8 6
8 9 9 6 4 4 4 1 1 1 3 8 4 4 3 2 5 4 6 4 5 5 7 17 12 15 12 10 13 17 14 5 2 0 2 3 6 8 8 5 14 19 11 6 8
8 8 7 2 2 1 1 5 3 3 6 7 3 3 2 2 5 6 7 7 6 9 6 11 13 17 15 18 13 16 12 8 9 2 5 5 7 9 17 13 14 18 16 13 8
7 4 1 4 2 2 3 4 2 5 5 5 2 2 3 3 5 4 2 3 9 7 6 5 4 15 17 11 13 8 7 13 8 5 2 4 2 5 8 18 19 16 15 7 8
4 5 4 3 3 2 4 3 4 8 6 7 5 5 6 3 4 5 4 4 5 4 7 9 6 4 3 11 15 6 5 6 4 4 8 14 9 5 7 12 17 15 19 11 13
8 6 4 2 2 3 3 3 6 6 4 8 3 4 4 5 5 3 4 5 5 3 5 5 15 5 6 4 12 17 7 5 9 8 15 16 7 12 3 3 6 14 18 18 14
12 6 4 2 1 3 4 7 6 4 5 4 5 8 1 4 4 5 4 3 7 2 2 5 7 14 9 13 4 18 8 4 8 13 12 2 11 9 16 5 3 6 8 9 9
10 2 1 2 2 3 6 5 8 6 4 5 7 5 7 6 2 6 3 3 4 9 6 1 5 4 12 9 11 5 14 13 3 3 5 6 5 6 5 7 5 8 12 10 9
4 2 1 1 3 5 6 4 3 3 3 2 2 2 3 6 5 4 2 3 5 2 1 3 6 3 2 6 9 10 7 9 5 6 5 6 4 6 8 8 7 8 11 10 11
3 4 1 2 4 6 4 7 5 6 4 3 2 4 5 4 4 3 4 5 3 4 5 2 4 2 3 6 12 6 12 7 6 4 6 5 6 1 4 14 14 10 10 11 11
4 3 3 3 4 1 1 6 4 4 1 3 2 4 4 3 3 3 4 5 5 3 5 3 2 4 8 8 5 4 17 8 6 5 1 2 3 8 6 9 14 14 11 8 10
3 2 2 5 2 3 6 4 3 3 4 1 3 3 2 3 3 5 3 1 5 5 8 1 2 4 7 3 4 3 2 9 11 2 4 7 5 8 13 12 9 16 12 10 11
4 2 5 4 2 6 1 4 4 4 3 3 4 1 3 3 3 5 3 4 1 3 16 9 3 5 3 3 4 5 7 14 22 9 4 4 6 4 11 15 9 11 10 9 8
3 3 4 2 4 2 1 2 2 3 2 3 3 4 4 3 4 3 3 6 4 5 3 5 5 4 3 6 6 12 14 14 22 15 13 12 12 15 14 15 12 11 9 10 8
5 5 2 2 0 4 3 5 5 4 3 5 4 4 4 6 7 5 3 3 3 6 5 5 4 2 3 6 9 13 14 7 25 8 6 16 11 4 6 8 9 11 10 9 8
1 1 4 2 2 2 6 6 4 1 5 6 5 3 6 11 8 8 6 6 8 5 6 4 5 4 3 6 8 5 8 11 3 5 11 18 19 11 10 12 11 8 9 10 8
Wind_Direction
18 14 9 14 13 15 15 13 11 7 359 349 345 344 339 335 334 335 50 319 325 333 328 320 343 335 305 270 219 122 91 215 248 198 250 322 4 347 305 104 60 359 149 188 144
1 3 5 5 3 7 9 8 7 2 357 350 343 340 332 336 316 315 295 344 349 338 316 40 337 330 257 245 232 144 165 207 188 121 207 315 0 342 5 65 34 26 21 132 147
342 343 349 357 359 355 357 1 359 356 352 349 345 338 326 334 286 111 14 357 355 350 244 29 292 263 247 294 207 195 199 214 146 151 172 333 360 337 5 243 190 172 149 151 157
348 341 336 337 346 350 348 346 347 348 347 343 344 340 325 315 330 221 359 351 351 349 110 209 216 192 217 188 229 203 241 219 161 95 87 338 293 339 11 275 294 181 162 157 167
356 348 338 321 329 337 338 335 334 335 336 336 338 343 346 2 264 352 10 349 5 6 14 298 209 203 201 188 181 190 239 246 144 106 75 284 352 236 277 318 311 137 165 169 175
349 348 343 332 321 325 325 324 324 323 324 325 330 343 346 301 294 348 355 333 359 359 328 339 353 294 274 241 178 190 216 259 115 139 328 295 276 184 264 1 99 155 178 182 181
343 346 343 334 314 313 316 317 316 312 312 310 312 316 264 248 304 319 327 310 298 282 299 301 334 357 331 255 280 159 318 296 199 197 243 219 276 211 252 21 141 180 222 183 194
332 339 338 334 322 305 312 310 309 309 304 293 285 77 255 257 283 307 308 307 298 280 256 266 246 235 227 299 102 137 120 233 191 175 222 163 244 227 214 123 285 204 194 202 212
328 336 337 334 328 321 317 310 311 303 291 302 87 153 267 299 101 317 161 305 303 287 290 288 302 221 212 162 125 198 180 213 304 191 167 194 243 207 209 93 44 3 219 210 210
335 332 330 329 326 324 319 311 305 339 340 131 242 28 286 292 336 318 294 342 314 319 328 248 208 199 189 181 206 184 200 199 211 199 209 201 238 210 165 145 192 306 345 223 219
321 319 318 321 321 330 339 357 17 353 18 270 273 288 288 290 298 236 85 355 297 207 213 251 219 216 213 230 296 338 190 213 206 217 185 217 215 224 232 223 210 256 264 274 246
318 313 315 319 319 336 21 67 159 214 311 234 252 255 265 263 302 294 211 186 266 226 220 263 238 221 219 205 230 254 260 235 248 230 205 204 230 223 224 234 228 232 221 227 270
309 314 315 320 330 43 93 111 252 286 287 295 223 211 255 178 253 282 173 185 206 266 250 230 245 214 226 215 199 231 227 242 243 25 245 100 246 217 245 229 224 237 223 189 226
287 309 311 321 32 221 53 317 119 81 64 283 272 244 279 256 272 240 215 169 217 217 236 257 253 260 248 223 204 221 219 229 249 154 227 169 264 217 208 214 222 225 228 221 207
268 303 139 90 193 67 280 320 105 56 38 274 296 310 285 208 286 312 184 169 213 201 173 225 247 239 224 232 214 221 172 207 219 212 34 249 244 233 200 220 216 218 227 219 129
205 149 113 50 50 279 315 343 53 44 268 324 328 335 342 260 239 285 269 136 226 227 276 265 165 319 326 222 227 289 251 182 137 148 239 213 210 233 199 209 220 218 219 170 144
146 126 98 96 154 323 11 43 36 115 312 305 296 330 319 285 301 264 291 224 228 93 236 272 239 193 193 248 202 225 203 174 189 195 229 166 200 229 209 252 235 214 212 194 160
131 95 49 99 273 45 59 51 78 247 249 293 307 317 349 336 287 302 307 298 201 185 180 194 297 174 165 210 249 200 221 199 178 198 210 133 222 223 235 91 15 77 115 105 109
108 23 42 304 354 69 75 59 200 208 246 310 324 47 316 330 299 354 298 264 278 185 212 327 257 312 190 182 180 189 214 227 353 15 142 194 277 297 125 127 69 74 92 92 90
102 132 355 224 56 58 77 245 210 230 296 290 263 142 233 277 11 25 304 305 310 315 102 251 289 187 234 218 231 218 147 199 214 155 194 205 205 210 168 166 132 106 104 97 96
71 50 292 93 56 46 142 226 248 249 233 218 254 289 244 268 187 267 279 269 296 311 276 218 196 275 11 238 193 188 229 213 174 185 162 131 239 112 253 169 146 132 118 115 106
98 46 309 68 47 91 161 194 230 271 316 277 244 239 242 269 290 295 248 237 344 343 267 200 229 237 223 211 212 206 229 186 197 199 196 137 246 327 206 139 133 123 112 98 94
109 200 51 84 135 259 310 287 240 232 235 227 263 230 275 262 284 226 286 304 35 9 351 270 244 341 332 88 1 249 209 232 211 149 219 131 258 351 115 118 119 122 114 107 99
85 46 326 48 97 134 108 274 293 231 251 225 235 67 321 273 224 272 282 293 335 339 338 295 228 193 218 280 244 247 263 261 201 198 155 158 136 126 139 129 115 113 107 104 102
53 233 169 273 316 91 59 240 277 297 242 232 267 203 204 286 291 257 304 298 280 332 307 333 247 201 233 287 291 281 270 265 198 188 187 167 147 168 157 142 136 127 118 113 109
136 142 165 178 262 63 255 255 214 275 198 274 203 262 218 217 207 275 282 310 277 322 318 327 306 52 319 298 285 289 300 303 185 134 100 143 139 132 120 105 125 135 130 123 124
199 57 111 208 100 128 228 233 242 152 262 228 216 268 259 250 226 238 234 244 273 304 312 311 336 14 288 310 304 300 348 310 126 93 142 155 166 145 138 142 149 141 139 144 151